Overview Statistics Trail Chart Weather Telemetry Raw packets
 

This is the latest recevied weather packets stored in our database for station/object W6MAF. If no packets are shown the sender has not sent any weather packets the latest 10 day(s).

<< 85 86 87 88 89 90 91 >>
Time Temp. Humidity Pressure Rain* Wind** Luminosity Snow
1788049613 27.78° C 12% - 0 mm 6.26 m/s, 153° - -
1788049315 27.78° C 12% - 0 mm 5.36 m/s, 148° - -
1788049017 27.78° C 12% - 0 mm 6.26 m/s, 170° - -
1788048716 27.78° C 12% - 0 mm 5.81 m/s, 181° - -
1788048418 27.78° C 11% - 0 mm 5.81 m/s, 180° - -
1788048121 28.33° C 11% - 0 mm 7.6 m/s, 173° - -
1788047823 28.33° C 10% - 0 mm 6.26 m/s, 174° - -
1788047525 28.33° C 10% - 0 mm 5.81 m/s, 163° - -
1788047228 28.33° C 10% - 0 mm 6.71 m/s, 169° - -
1788046927 28.89° C 10% - 0 mm 7.15 m/s, 181° - -
1788046629 28.89° C 10% - 0 mm 6.26 m/s, 187° - -
1788046331 28.89° C 10% - 0 mm 6.26 m/s, 162° - -
1788046033 29.44° C 9% - 0 mm 6.71 m/s, 174° - -
1788045736 29.44° C 8% - 0 mm 8.94 m/s, 193° - -
1788045438 30° C 7% - 0 mm 9.39 m/s, 172° - -
1788045137 30.56° C 7% - 0 mm 6.26 m/s, 165° - -
1788044839 30.56° C 7% - 0 mm 8.49 m/s, 194° - -
1788044541 31.11° C 6% - 0 mm 8.49 m/s, 184° - -
1788044244 31.11° C 6% - 0 mm 8.49 m/s, 167° - -
1788043946 31.11° C 7% - 0 mm 6.26 m/s, 197° - -
1788043648 31.11° C 7% - 0 mm 9.39 m/s, 181° - -
1788043347 31.11° C 7% - 0 mm 8.05 m/s, 183° - -
1788043049 31.11° C 7% - 0 mm 8.94 m/s, 194° - -
1788042752 31.11° C 7% - 0 mm 8.49 m/s, 180° - -
1788042454 31.11° C 7% - 0 mm 8.05 m/s, 190° - -

* Rain latest hour (hover to see other rain measurements)
** Current wind speed in m/s (hover to see current wind gust speed)